Satellite: NANOSALD
Catalog number: 37361
Epoch time:      11116.73946851
Element set:    0160
Inclination:      071.9704 deg
RA of node:       150.7935 deg
Eccentricity:    0.0033612
Arg of perigee:   294.3537 deg
Mean anomaly:     065.3944 deg
Mean motion:   14.91486360 rev/day
Decay rate:    1.10781e-03 rev/day^2
Epoch rev:           01443
Checksum:              295

Satellite: FAST2
Catalog number: 37380
Epoch time:      11118.40457318
Element set:    0151
Inclination:      071.9739 deg
RA of node:       149.0810 deg
Eccentricity:    0.0017205
Arg of perigee:   005.4596 deg
Mean anomaly:     354.6718 deg
Mean motion:   14.76330642 rev/day
Decay rate:       2.44e-06 rev/day^2
Epoch rev:           02351
Checksum:              277

/EX
SB KEPS @ AMSAT  $ORB11118.W
Orbital Elements  11118.WEATHER

HR AMSAT ORBITAL ELEMENTS FOR WEATHER SATELLITES
FROM WA5QGD FORT WORTH,TX April 28, 2011
Send Subscribe/unsubscribe to KEPS at http://www.amsat.org/mailman/listinfo/kep
BID: ORB11118.W
TO ALL RADIO AMATEURS BT

Satellite: NOAA-10
Catalog number: 16969
Epoch time:      11117.67185120
Element set:    0491
Inclination:      098.6243 deg
RA of node:       148.1358 deg
Eccentricity:    0.0012578
Arg of perigee:   017.1877 deg
Mean anomaly:     342.9726 deg
Mean motion:   14.27456459 rev/day
Decay rate:        8.8e-07 rev/day^2
Epoch rev:           28044
Checksum:              328

Satellite: NOAA-11
Catalog number: 19531
Epoch time:      11117.78053816
Element set:    0484
Inclination:      098.7506 deg
RA of node:       206.1966 deg
Eccentricity:    0.0011111
Arg of perigee:   336.6747 deg
Mean anomaly:     023.3904 deg
Mean motion:   14.14913577 rev/day
Decay rate:       1.44e-06 rev/day^2
Epoch rev:           16562
Checksum:              294

Satellite: NOAA-12
Catalog number: 21263
Epoch time:      11118.82019043
Element set:     977
Inclination:      098.7513 deg
RA of node:       136.7504 deg
Eccentricity:    0.0011916
Arg of perigee:   334.5062 deg
Mean anomaly:     025.6017 deg
Mean motion:   14.25705231 rev/day
Decay rate:       1.37e-06 rev/day^2
Epoch rev:            3742
Checksum:              267

Satellite: MET-3/5
Catalog number: 21655
Epoch time:      11118.90625117
Element set:      97
Inclination:      082.5546 deg
RA of node:       085.5909 deg
Eccentricity:    0.0012163
Arg of perigee:   282.5265 deg
Mean anomaly:     077.4439 deg
Mean motion:   13.17026587 rev/day
Decay rate:        5.1e-07 rev/day^2
Epoch rev:           94723
Checksum:              311

Satellite: MET-2/21
Catalog number: 22782
Epoch time:      11118.79435574
Element set:      81
Inclination:      082.5515 deg
RA of node:       002.0692 deg
Eccentricity:    0.0021127
Arg of perigee:   235.7122 deg
Mean anomaly:     124.2038 deg
Mean motion:   13.83657585 rev/day
Decay rate:       -8.7e-07 rev/day^2
Epoch rev:           89172
Checksum:              296

Satellite: OKEAN-4
Catalog number: 23317
Epoch time:      11118.91154359
Element set:     539
Inclination:      082.5393 deg
RA of node:       059.1452 deg
Eccentricity:    0.0020290
Arg of perigee:   283.5955 deg
Mean anomaly:     076.2999 deg
Mean motion:   14.83037000 rev/day
Decay rate:       7.04e-06 rev/day^2
Epoch rev:           89324
Checksum:              307

Satellite: NOAA-14
Catalog number: 23455
Epoch time:      11117.93062992
Element set:    0477
Inclination:      098.8528 deg
RA of node:       201.0634 deg
Eccentricity:    0.0010304
Arg of perigee:   063.9455 deg
Mean anomaly:     296.2773 deg
Mean motion:   14.13815414 rev/day
Decay rate:        9.0e-08 rev/day^2
Epoch rev:           84197
Checksum:              307

Satellite: NOAA-15
Catalog number: 25338
Epoch time:      11117.81776243
Element set:    0793
Inclination:      098.6520 deg
RA of node:       104.6599 deg
Eccentricity:    0.0009804
Arg of perigee:   236.6715 deg
Mean anomaly:     123.3501 deg
Mean motion:   14.24905057 rev/day
Decay rate:        2.6e-07 rev/day^2
Epoch rev:           67355
Checksum:              307

Satellite: RESURS
Catalog number: 25394
Epoch time:      11118.93000550
Element set:     782
Inclination:      098.3008 deg
RA of node:       124.6673 deg
Eccentricity:    0.0002294
Arg of perigee:   038.6477 deg
Mean anomaly:     321.4868 deg
Mean motion:   14.24230684 rev/day
Decay rate:        1.0e-08 rev/day^2
Epoch rev:           66529
Checksum:              289

Satellite: FENGYUN1
Catalog number: 25730
Epoch time:      11118.94672059
Element set:     312
Inclination:      098.8165 deg
RA of node:       081.2310 deg
Eccentricity:    0.0025026
Arg of perigee:   086.7846 deg
Mean anomaly:     273.6186 deg
Mean motion:   14.08597923 rev/day
Decay rate:       3.64e-06 rev/day^2
Epoch rev:           61613
Checksum:              304

Satellite: OKEAN-0
Catalog number: 25860
Epoch time:      11117.98823795
Element set:    0312
Inclination:      097.8789 deg
RA of node:       085.8295 deg
Eccentricity:    0.0001567
Arg of perigee:   102.5762 deg
Mean anomaly:     257.5622 deg
Mean motion:   14.73764456 rev/day
Decay rate:       3.38e-06 rev/day^2
Epoch rev:           63326
Checksum:              336

